[[{"header":{"parameterUnit":"m.s-1","parameterCategory":1,"la1":30.2991,"la2":30.254,"lo1":-89.0895,"lo2":-89.0444,"dy":0.0017,"dx":0.0017,"nx":28,"ny":28,"refTime":"2025-02-27T09:00:00:Z","depth":0,"parameterNumber":2,"parameterNumberName":"U-component_of_WINDS"},"data":[0,0,0,0,0,0,0,0,0,0,0,0,0,0,0,0,0,0,0,0,0,0,0,0,0,0,0,0,0,0,0,0,0,0,0,0,0,0,0,0,0,0,0,0,0,0,0,0,0,0,0,0,0,0,0,0,0,0,0.4867,0.4868,0,0.4921,0.4922,0.4923,0.4907,0.4906,0.4905,0.4904,0.4959,0.4961,0.4964,0,0,0,0,0,0,0,0,0,0,0,0,0,0.475,0.4752,0.4867,0.4868,0.4869,0.4921,0.4922,0.4923,0.4908,0.4906,0.4905,0.4904,0.4958,0.4961,0.4964,0,0,0,0,0,0,0,0,0,0,0,0,0,0.4802,0.4753,0.4867,0.4867,0.4868,0.4921,0.4922,0.4923,0.4908,0.4906,0.4905,0.4903,0.4957,0.4961,0.4964,0.502,0,0,0.4976,0.4977,0,0,0,0,0,0,0,0,0.4799,0.4806,0.4867,0.4867,0.4868,0.4906,0.4901,0.4956,0.4908,0.4893,0.4904,0.4902,0.4942,0.4947,0.4961,0.5023,0.5025,0.4976,0.4978,0.498,0.4981,0,0,0,0,0,0,0,0.4795,0.4804,0.4889,0.4868,0.4868,0.4864,0.487,0.4911,0.4926,0.4894,0.4893,0.49,0.4943,0.4957,0.4962,0.5026,0.4976,0.4979,0.4981,0.4983,0.5136,0.5138,0,0,0,0,0,0,0.4791,0.4801,0.4887,0.489,0.4829,0.4868,0.4874,0.4895,0.4926,0.4929,0.4901,0.4899,0.4952,0.4958,0.4964,0.5031,0.498,0.4983,0.4985,0.5134,0.5136,0.5138,0,0,0,0,0,0,0.4789,0.4799,0.4885,0.4845,0.4856,0.4872,0.4896,0.4897,0.4912,0.4931,0.4934,0.4914,0.4951,0.4959,0.5006,0.5033,0.4985,0.4988,0.5132,0.5135,0.5137,0.5167,0,0,0,0,0,0,0.4785,0.4798,0.482,0.4846,0.4858,0.4927,0.4897,0.49,0.4919,0.4916,0.4943,0.4946,0.495,0.5001,0.501,0.5037,0.4991,0.513,0.5133,0.5136,0.5164,0.517,0.5176,0,0,0,0,0,0.4781,0.4826,0.4821,0.4832,0.4886,0.4928,0.4935,0.4939,0.4921,0.4943,0.4955,0.4945,0.5029,0.5006,0.5016,0.5045,0.5128,0.5132,0.5136,0.5161,0.5169,0.5176,0,0,0,0,0,0,0.4802,0.4829,0.4824,0.4879,0.4901,0.4925,0.4953,0.4947,0.4975,0.4972,0.4975,0.4981,0.503,0.5042,0.5016,0.5101,0.5076,0.5082,0.5091,0.5099,0.5105,0.5101,0.4994,0,0,0,0,0,0.4813,0.4846,0.4868,0.4914,0.4925,0.4937,0.4956,0.4957,0.498,0.499,0.5005,0.5028,0.5059,0.508,0.5109,0.5165,0.5171,0.519,0.5196,0.5201,0.5207,0.5237,0.5246,0.5152,0.5152,0.5152,0,0,0.4837,0.4855,0.4876,0.4918,0.4936,0.4969,0.4945,0.4982,0.5007,0.4995,0.5041,0.5053,0.5079,0.5131,0.5154,0.5142,0.5234,0.5207,0.521,0.5213,0.5242,0.5251,0.5259,0.5155,0.5154,0.5154,0,0,0.4896,0.4913,0.4953,0.4972,0.4999,0.5006,0.5016,0.5041,0.5049,0.5095,0.5087,0.5116,0.517,0.5189,0.5205,0.5271,0.5263,0.5281,0.5313,0.5343,0.535,0.5357,0.538,0.5389,0.5286,0.5286,0.5286,0,0.4921,0.4971,0.4975,0.5012,0.5031,0.5022,0.5063,0.508,0.5115,0.5128,0.5115,0.5182,0.5199,0.5255,0.5271,0.5284,0.5295,0.5278,0.5349,0.5355,0.5362,0.5384,0.5393,0.5288,0.5288,0.5288,0.5287,0,0.5001,0.5036,0.5065,0.5099,0.5122,0.516,0.5169,0.5191,0.519,0.5199,0.5246,0.5266,0.53,0.5313,0.5312,0.5369,0.5361,0.5348,0.5323,0.5372,0.5394,0.5402,0.5291,0.529,0.529,0.5289,0,0,0.5075,0.5111,0.5121,0.5137,0.5166,0.5193,0.5231,0.5264,0.5283,0.5308,0.5339,0.5385,0.5374,0.5392,0.5393,0.5419,0.547,0.5403,0.5404,0.5415,0.5534,0.5543,0.5553,0.5465,0.5467,0.5468,0.5532,0,0.5136,0.5204,0.5208,0.5269,0.5301,0.5293,0.5327,0.5348,0.5357,0.5386,0.5396,0.5428,0.5411,0.5422,0.5447,0.5459,0.5494,0.5454,0.5495,0.5496,0.5489,0.5564,0.5574,0.5633,0.554,0.5541,0.5542,0,0.5217,0.5244,0.5309,0.5333,0.5347,0.5377,0.5407,0.5435,0.5459,0.5464,0.5485,0.5482,0.5521,0.5495,0.5548,0.5521,0.5537,0.5546,0.5548,0.5552,0.5522,0.557,0.5652,0.5661,0.5555,0.5554,0.5553,0,0.5264,0.5317,0.5363,0.5376,0.5406,0.5427,0.544,0.5463,0.5482,0.5509,0.5522,0.5552,0.5569,0.5593,0.5599,0.5579,0.5652,0.5626,0.5657,0.5657,0.5672,0.5671,0.5758,0.5683,0.5683,0.5683,0.5683,0,0.5333,0.5372,0.5384,0.5412,0.5456,0.546,0.5504,0.5516,0.5536,0.5565,0.556,0.5588,0.5594,0.5623,0.5628,0.5671,0.5679,0.5684,0.5685,0.5684,0.5684,0.5695,0.5691,0.5685,0.5685,0.5684,0.5684,0,0.5393,0.5403,0.5451,0.5476,0.5483,0.5514,0.5535,0.5561,0.557,0.5608,0.5617,0.5631,0.5665,0.5673,0.5713,0.5716,0.5767,0.5764,0.576,0.5759,0.579,0.5787,0.5887,0.59,0.5817,0.5818,0.5818,0,0.5436,0.5466,0.5494,0.5514,0.5528,0.556,0.558,0.5585,0.5606,0.5636,0.5659,0.5692,0.5719,0.5774,0.5787,0.5818,0.5815,0.5848,0.582,0.5819,0.5816,0.5814,0.5817,0.5854,0.5855,0.5855,0.5856,0,0.5511,0.5514,0.5543,0.5575,0.5599,0.5624,0.5647,0.5663,0.5672,0.5696,0.5731,0.5752,0.5793,0.5826,0.5857,0.587,0.5865,0.5865,0.5873,0.5873,0.5869,0.5872,0.5774,0.5862,0.5862,0.5861,0.5861,0.5861,0.5563,0.559,0.5614,0.5647,0.5665,0.5687,0.5713,0.5726,0.5755,0.5789,0.579,0.5828,0.5851,0.5892,0.5907,0.5937,0.5927,0.5939,0.5942,0.5945,0.5948,0.5865,0.5942,0.5942,0.5942,0.5942,0.5942,0,0.5638,0.5653,0.5683,0.5716,0.5742,0.5735,0.5761,0.5783,0.5816,0.5838,0.5865,0.5905,0.5937,0.5953,0.5985,0.6005,0.6003,0.6013,0.6012,0.6015,0.5955,0.5945,0.6014,0.6014,0.6014,0.6014,0.6014,0.6014,0.568,0.5724,0.5731,0.5784,0.5799,0.5836,0.5851,0.5872,0.5889,0.5934,0.5961,0.5971,0.5991,0.6024,0.6053,0.6057,0.6069,0.608,0.6083,0.6027,0.6019,0.6012,0.6002,0.6083,0.6083,0.614,0.614,0.6141]},{"header":{"parameterUnit":"m.s-1","parameterCategory":1,"la1":30.2991,"la2":30.254,"lo1":-89.0895,"lo2":-89.0444,"dy":0.0017,"dx":0.0017,"nx":28,"ny":28,"refTime":"2025-02-27T09:00:00:Z","depth":0,"parameterNumber":3,"parameterNumberName":"V-component_of_WINDS"},"data":[0,0,0,0,0,0,0,0,0,0,0,0,0,0,0,0,0,0,0,0,0,0,0,0,0,0,0,0,0,0,0,0,0,0,0,0,0,0,0,0,0,0,0,0,0,0,0,0,0,0,0,0,0,0,0,0,0,0,0.1913,0.1913,0,0.1935,0.1935,0.1935,0.1913,0.1912,0.1911,0.191,0.1933,0.1934,0.1936,0,0,0,0,0,0,0,0,0,0,0,0,0,0.1852,0.1853,0.1913,0.1913,0.1913,0.1934,0.1935,0.1935,0.1913,0.1912,0.1911,0.191,0.1933,0.1934,0.1936,0,0,0,0,0,0,0,0,0,0,0,0,0,0.1877,0.1854,0.1913,0.1905,0.1904,0.1934,0.1935,0.1935,0.1913,0.1912,0.191,0.1909,0.1932,0.1934,0.1936,0.1976,0,0,0.1943,0.1944,0,0,0,0,0,0,0,0,0.1875,0.1879,0.1906,0.1905,0.1905,0.1919,0.1922,0.1949,0.1913,0.191,0.191,0.1908,0.193,0.1932,0.1939,0.1977,0.1978,0.1943,0.1944,0.1945,0.1946,0,0,0,0,0,0,0,0.1874,0.1878,0.1921,0.1906,0.1906,0.19,0.1902,0.1927,0.1927,0.191,0.1908,0.1911,0.1929,0.1937,0.1939,0.1978,0.1943,0.1945,0.1946,0.1947,0.2049,0.205,0,0,0,0,0,0,0.1873,0.1877,0.1921,0.1922,0.1886,0.1902,0.1904,0.1916,0.1926,0.1927,0.1912,0.191,0.1934,0.1937,0.194,0.1987,0.1945,0.1947,0.1948,0.2048,0.2049,0.2051,0,0,0,0,0,0,0.1871,0.1877,0.192,0.1899,0.1904,0.1905,0.1918,0.1917,0.1925,0.1928,0.1928,0.192,0.1933,0.1937,0.1967,0.1987,0.1948,0.195,0.2046,0.2048,0.205,0.2081,0,0,0,0,0,0,0.187,0.1877,0.1892,0.1899,0.1905,0.1947,0.1919,0.1919,0.1929,0.1926,0.1936,0.1936,0.1932,0.1964,0.1969,0.199,0.1952,0.2044,0.2047,0.2049,0.2078,0.2084,0.2089,0,0,0,0,0,0.1868,0.19,0.1893,0.1898,0.1924,0.1948,0.1951,0.1946,0.193,0.1946,0.1947,0.1936,0.1984,0.1967,0.1973,0.1994,0.2043,0.2046,0.2049,0.2076,0.2083,0.2089,0,0,0,0,0,0,0.1896,0.1901,0.1893,0.1929,0.1938,0.1944,0.1963,0.1954,0.1968,0.1965,0.1958,0.196,0.1992,0.1996,0.1977,0.2033,0.2011,0.2015,0.2029,0.2036,0.2041,0.204,0.1954,0,0,0,0,0,0.1906,0.1924,0.1928,0.1959,0.1964,0.1963,0.1973,0.1968,0.1977,0.1981,0.1986,0.1995,0.2013,0.2024,0.204,0.2078,0.208,0.2096,0.2101,0.2105,0.211,0.213,0.2137,0.2061,0.2061,0.2061,0,0,0.1927,0.1932,0.1945,0.1965,0.1971,0.1991,0.1966,0.1988,0.2003,0.1985,0.2013,0.2016,0.2027,0.2061,0.2076,0.2065,0.2131,0.211,0.2113,0.2115,0.2134,0.2141,0.2147,0.2063,0.2063,0.2063,0,0,0.1977,0.1982,0.2009,0.2015,0.2025,0.2024,0.203,0.2038,0.2039,0.2067,0.2054,0.2071,0.2101,0.2109,0.2117,0.2167,0.2157,0.2172,0.2201,0.2221,0.2227,0.2232,0.225,0.2257,0.2176,0.2177,0.2177,0,0.2002,0.2031,0.2024,0.2046,0.2055,0.2039,0.2066,0.2073,0.2088,0.2094,0.2082,0.2118,0.2124,0.216,0.2172,0.2179,0.2186,0.2172,0.2226,0.2231,0.2236,0.2254,0.2261,0.2178,0.2178,0.2178,0.2178,0,0.2062,0.2082,0.2102,0.2117,0.2128,0.2152,0.2149,0.2161,0.2154,0.2154,0.2183,0.2189,0.2206,0.2213,0.2207,0.2248,0.2241,0.2227,0.2205,0.2245,0.2262,0.2268,0.2181,0.218,0.218,0.2179,0,0,0.2132,0.214,0.2148,0.2154,0.2163,0.2178,0.2201,0.2217,0.2228,0.2238,0.2258,0.2283,0.227,0.2279,0.2274,0.2291,0.233,0.2275,0.2275,0.2286,0.2375,0.2386,0.2394,0.2323,0.2324,0.2325,0.2375,0,0.2182,0.2222,0.2215,0.2255,0.2273,0.2257,0.2277,0.2285,0.2285,0.23,0.23,0.2318,0.23,0.2305,0.2321,0.2322,0.2349,0.2318,0.2342,0.2343,0.2341,0.2402,0.2414,0.2461,0.2381,0.2382,0.2383,0,0.2246,0.2258,0.2299,0.2304,0.2312,0.233,0.2344,0.2359,0.2367,0.2366,0.2375,0.2366,0.2389,0.2365,0.2397,0.2377,0.2385,0.2387,0.2389,0.2392,0.2366,0.2408,0.2475,0.2483,0.2393,0.2392,0.2391,0,0.2293,0.232,0.2348,0.2353,0.236,0.2373,0.2376,0.2383,0.2393,0.2404,0.2411,0.2425,0.2433,0.2444,0.2439,0.2422,0.2472,0.2448,0.2472,0.2472,0.2484,0.2484,0.2555,0.2488,0.2488,0.2488,0.2488,0,0.2351,0.2377,0.2369,0.2386,0.2414,0.2406,0.2434,0.2435,0.2441,0.2458,0.2445,0.2461,0.2453,0.2469,0.2465,0.2492,0.2495,0.2495,0.2494,0.2497,0.2497,0.2504,0.2501,0.249,0.2489,0.2489,0.2489,0,0.2409,0.2405,0.2434,0.2437,0.2439,0.246,0.2463,0.2479,0.2477,0.2499,0.2503,0.2501,0.2518,0.2514,0.2533,0.2531,0.2565,0.2559,0.2562,0.2561,0.2585,0.2584,0.2664,0.2675,0.26,0.2601,0.2601,0,0.2447,0.2466,0.2471,0.2481,0.2486,0.2503,0.2512,0.2504,0.2514,0.2524,0.2539,0.2555,0.2568,0.2597,0.2597,0.2611,0.2606,0.2633,0.2608,0.2611,0.2607,0.2607,0.2609,0.2639,0.264,0.264,0.2641,0,0.2514,0.251,0.2524,0.2538,0.2549,0.2559,0.2568,0.2577,0.2569,0.2582,0.2599,0.2609,0.2628,0.2645,0.2658,0.2661,0.265,0.2648,0.2655,0.2659,0.266,0.266,0.2577,0.2647,0.2647,0.2646,0.2646,0.2646,0.2563,0.258,0.2586,0.2602,0.2607,0.2615,0.263,0.263,0.2644,0.2659,0.2653,0.2673,0.268,0.2696,0.2701,0.2716,0.2706,0.2715,0.2718,0.272,0.2724,0.2657,0.2718,0.2718,0.2718,0.2718,0.2718,0,0.2631,0.2633,0.2648,0.266,0.2673,0.266,0.2668,0.268,0.2698,0.2704,0.2716,0.2736,0.2752,0.2752,0.2766,0.2779,0.2774,0.2783,0.2783,0.2784,0.2732,0.2725,0.2787,0.2787,0.2787,0.2787,0.2787,0.2787,0.2667,0.2694,0.2691,0.272,0.2722,0.2742,0.2748,0.2755,0.276,0.2783,0.2796,0.2795,0.28,0.2814,0.2827,0.2827,0.2833,0.2844,0.2842,0.2794,0.2787,0.2781,0.2775,0.2845,0.2845,0.2893,0.2893,0.2893]}]]